Weather History for London-Corbin, KY

Change the Weather History Date:

Thursday, June 27, 2013

  Actual Average Record
Temperature  
Mean Temperature 74 °F 75 °F  
Max Temperature 83 °F 86 °F 95 °F (1978)
Min Temperature 65 °F 65 °F 48 °F (1961)
Degree Days  
Heating Degree Days 0 0  
Month to date heating degree days 0 7  
Since 1 June heating degree days 0 7  
Since 1 July heating degree days 4531 4203  
Cooling Degree Days 9 10  
Month to date cooling degree days 207 211  
Year to date cooling degree days 307 325  
Since 1 June cooling degree days 207 211  
Growing Degree Days 23 (Base 50)    
Moisture  
Dew Point 67 °F    
Average Humidity 81    
Maximum Humidity 93    
Minimum Humidity 69    
Precipitation  
Precipitation 1.33 in 0.14 in 1.33 in (2013)
Month to date precipitation 7.09 3.97  
Year to date precipitation 30.10 24.50  
Sea Level Pressure  
Sea Level Pressure 29.85 in    
Wind  
Wind Speed 6 mph (WSW)    
Max Wind Speed 28 mph    
Max Gust Speed 39 mph    
Visibility 8 miles    
Events Rain , Thunderstorm    
T = Trace of Precipitation, MM = Missing Value Source: NWS Daily Summary

Daily Weather History Graph

Daily Weather History Graph

Search for Another Location

Airport:

Trip Planner

Search our weather history database for the weather conditions in past years. The results will help you decide how hot, cold, wet, or windy it might be!

Date:

Astronomy

Jun. 27, 2013 Rise Set
Actual Time 6:18 AM EDT 9:00 PM EDT
Civil Twilight 5:47 AM EDT 9:31 PM EDT
Nautical Twilight 5:09 AM EDT 10:09 PM EDT
Astronomical Twilight 4:25 AM EDT 10:52 PM EDT
Moon No Moon Rise 11:11 AM EDT (6/27)
Length of Visible Light 15h 43m
Length of Day
14h 41m
Waning Gibbous, 76% of the Moon is Illuminated
Jun 27
Waning Gibbous
Jun 30
Last Quarter
Jul 8
New
Jul 15
First Quarter
Jul 22
Full

Hourly Weather History & Observations

Time (EDT) Temp. Heat Index Dew Point Humidity Pressure Visibility Wind Dir Wind Speed Gust Speed Precip Events Conditions
12:53 AM 75.0 °F - 69.1 °F 82% 29.81 in 4.0 mi West 28.8 mph 43.7 mph 0.05 in Rain Light Rain
1:37 AM 69.8 °F - 66.2 °F 88% 29.91 in 5.0 mi West 16.1 mph 25.3 mph 0.10 in Rain Rain
1:53 AM 68.0 °F - 66.0 °F 93% 29.87 in 7.0 mi West 16.1 mph 21.9 mph 0.14 in Rain Rain
2:16 AM 68.0 °F - 66.2 °F 94% 29.91 in 6.0 mi WSW 11.5 mph 18.4 mph 0.07 in Rain Rain
2:33 AM 68.0 °F - 66.2 °F 94% 29.89 in 8.0 mi West 10.4 mph 23.0 mph 0.11 in Rain Light Rain
2:49 AM 68.0 °F - 64.4 °F 88% 29.88 in 10.0 mi WSW 8.1 mph - 0.12 in Rain Light Rain
2:53 AM 66.9 °F - 64.9 °F 93% 29.83 in 10.0 mi SW 8.1 mph - 0.12 in Rain Light Rain
3:01 AM 66.2 °F - 64.4 °F 94% 29.87 in 10.0 mi WSW 6.9 mph - 0.00 in   Mostly Cloudy
3:23 AM 66.2 °F - 64.4 °F 94% 29.86 in 10.0 mi Calm Calm - 0.00 in   Scattered Clouds
3:53 AM 66.0 °F - 64.9 °F 96% 29.83 in 10.0 mi South 4.6 mph - 0.00 in   Mostly Cloudy
4:53 AM 66.0 °F - 64.9 °F 96% 29.84 in 3.0 mi SSW 3.5 mph - 0.10 in Rain , Thunderstorm Rain
4:56 AM 66.2 °F - 64.4 °F 94% 29.88 in 1.8 mi SSW 4.6 mph - 0.05 in Rain , Thunderstorm Heavy Rain
5:08 AM 66.2 °F - 64.4 °F 94% 29.88 in 0.8 mi Calm Calm - 0.31 in Rain , Thunderstorm Heavy Thunderstorms and Rain
5:33 AM 64.4 °F - 64.4 °F 100% 29.88 in 1.8 mi SW 4.6 mph - 0.73 in Rain , Thunderstorm Light Rain
5:48 AM 64.4 °F - 64.4 °F 100% 29.87 in 1.2 mi SSW 6.9 mph - 0.98 in Rain Light Rain
5:53 AM 64.9 °F - 64.0 °F 97% 29.83 in 6.0 mi South 6.9 mph - 0.98 in Rain Light Rain
6:53 AM 66.0 °F - 64.0 °F 93% 29.83 in 10.0 mi South 5.8 mph - 0.00 in   Overcast
7:53 AM 66.0 °F - 64.0 °F 93% 29.83 in 10.0 mi Variable 4.6 mph - N/A   Overcast
8:07 AM 66.2 °F - 64.4 °F 94% 29.87 in 10.0 mi South 4.6 mph - N/A   Overcast
8:53 AM 69.1 °F - 66.0 °F 90% 29.83 in 10.0 mi SSW 4.6 mph - N/A   Overcast
9:28 AM 69.8 °F - 66.2 °F 88% 29.88 in 10.0 mi Variable 4.6 mph - N/A   Overcast
9:53 AM 71.1 °F - 66.9 °F 87% 29.83 in 10.0 mi SW 8.1 mph - N/A   Overcast
10:37 AM 71.6 °F - 68.0 °F 88% 29.87 in 10.0 mi WSW 6.9 mph - N/A   Overcast
10:53 AM 71.1 °F - 68.0 °F 90% 29.84 in 10.0 mi WSW 9.2 mph - N/A   Overcast
11:53 AM 73.0 °F - 70.0 °F 90% 29.84 in 10.0 mi WSW 5.8 mph - N/A   Overcast
12:53 PM 73.9 °F - 70.0 °F 87% 29.85 in 8.0 mi West 9.2 mph - N/A   Overcast
1:17 PM 75.2 °F - 69.8 °F 83% 29.88 in 10.0 mi WSW 5.8 mph - N/A   Overcast
1:51 PM 77.0 °F - 69.8 °F 78% 29.87 in 10.0 mi West 6.9 mph - N/A   Overcast
1:53 PM 77.0 °F - 70.0 °F 79% 29.83 in 10.0 mi WSW 8.1 mph - N/A   Overcast
2:41 PM 80.6 °F 83.9 °F 69.8 °F 70% 29.86 in 10.0 mi West 9.2 mph - N/A   Mostly Cloudy
2:53 PM 80.1 °F 83.6 °F 71.1 °F 74% 29.83 in 10.0 mi West 9.2 mph - N/A   Mostly Cloudy
3:53 PM 82.0 °F 86.3 °F 71.1 °F 69% 29.81 in 10.0 mi West 9.2 mph - N/A   Mostly Cloudy
4:53 PM 79.0 °F - 72.0 °F 79% 29.80 in 9.0 mi West 11.5 mph 17.3 mph 0.00 in Rain Light Rain
5:53 PM 78.1 °F - 71.1 °F 79% 29.80 in 10.0 mi West 8.1 mph - 0.00 in Thunderstorm Scattered Clouds
6:37 PM 73.4 °F - 69.8 °F 88% 29.83 in 10.0 mi West 8.1 mph - N/A   Mostly Cloudy
6:53 PM 75.0 °F - 69.1 °F 82% 29.80 in 10.0 mi WNW 4.6 mph - N/A   Scattered Clouds
7:53 PM 75.0 °F - 69.1 °F 82% 29.81 in 10.0 mi West 5.8 mph - N/A   Clear
8:53 PM 73.0 °F - 69.1 °F 87% 29.79 in 10.0 mi Calm Calm - N/A   Partly Cloudy
9:53 PM 71.1 °F - 69.1 °F 93% 29.81 in 10.0 mi SSW 4.6 mph - N/A   Clear
10:53 PM 71.1 °F - 69.1 °F 93% 29.82 in 8.0 mi Calm Calm - N/A   Clear
11:53 PM 71.1 °F - 69.1 °F 93% 29.82 in 7.0 mi Calm Calm - N/A   Clear